Wind_Speed
23 23 24 25 25 25 26 27 28 28 28 27 27 27 27 27 28 29 30 31 31 30 30 31 32 31 31 32 32 32 30 31 32 32 32 31 31 31 31 31 31 30 29
23 24 24 25 25 26 27 28 28 28 28 28 28 27 27 28 28 28 28 29 30 30 31 30 31 32 32 31 31 31 30 31 32 32 33 32 32 32 32 32 32 32 32
23 23 24 25 26 27 28 28 28 28 28 28 28 28 28 28 28 27 27 28 29 30 31 30 32 32 30 30 31 30 30 29 29 30 31 32 33 33 33 33 34 34 34
22 23 24 24 25 27 28 28 28 28 28 28 28 28 28 28 28 28 27 27 28 28 29 30 30 30 31 30 30 30 30 30 29 29 30 31 33 34 34 34 33 34 34
22 23 23 24 25 26 26 27 27 27 27 28 28 28 28 27 27 27 27 27 27 28 28 29 28 29 30 30 30 29 29 29 29 30 31 32 33 33 34 34 34 34 36
21 22 22 23 24 24 25 25 25 25 26 27 27 27 27 26 26 26 27 28 27 27 28 28 28 29 29 30 29 29 29 29 29 30 30 31 32 33 32 33 34 34 34
19 20 21 22 23 23 23 23 23 23 23 24 25 26 26 26 25 25 26 27 27 27 27 28 28 29 29 29 29 30 29 30 30 29 30 30 31 32 32 32 33 34 34
20 21 21 22 21 21 21 22 22 22 22 23 24 25 26 26 26 25 25 25 26 26 26 26 27 28 28 29 29 28 28 29 29 29 29 30 31 31 31 31 31 32 33
20 21 21 21 21 20 20 21 22 21 22 23 23 24 25 25 25 25 24 25 25 25 26 25 25 25 26 27 28 27 27 28 28 29 30 30 31 32 32 32 31 31 32
20 21 21 21 20 20 20 21 21 21 21 22 22 23 23 23 23 23 23 23 24 24 25 23 22 23 25 26 26 28 27 26 27 28 29 30 31 31 32 31 31 32 32
21 21 21 21 21 20 20 20 20 20 20 21 21 21 21 22 22 22 22 22 22 23 24 23 22 23 24 25 26 27 27 27 26 26 27 27 29 30 31 32 33 34 34
21 21 21 21 21 21 20 20 19 20 20 20 20 21 21 21 21 21 21 21 21 21 22 23 23 23 24 24 25 26 26 26 25 26 26 27 28 29 30 30 31 32 33
21 21 21 21 21 21 20 20 20 20 20 20 20 20 21 21 21 21 21 21 21 21 21 21 22 22 23 23 24 24 25 25 25 25 26 28 28 28 29 29 30 31 32
22 22 23 22 22 21 21 21 21 21 20 20 20 21 21 21 21 21 21 21 21 22 22 22 21 22 22 22 23 23 24 24 24 26 26 26 27 28 28 29 30 30 31
23 23 23 22 22 22 21 21 21 21 21 21 21 20 21 21 20 20 21 20 20 21 22 22 22 22 21 21 22 22 23 24 24 25 26 27 27 27 28 29 29 30 30
23 23 22 22 22 22 21 21 21 21 21 20 21 20 21 21 20 19 20 20 19 19 20 21 21 21 21 21 21 22 23 23 23 24 25 25 26 27 27 27 28 28 29
23 23 22 21 21 20 20 20 20 20 20 20 19 19 19 19 18 18 18 18 17 17 17 17 17 18 18 19 19 19 20 21 21 22 23 23 23 24 24 25 26 26 27
22 22 21 20 19 20 19 19 19 18 17 17 17 17 17 17 16 16 15 16 15 15 14 14 15 15 15 15 16 17 17 18 19 19 20 20 21 22 23 23 24 24 25
21 21 19 19 19 18 18 17 16 15 14 14 14 14 14 13 13 13 14 13 13 13 13 13 14 14 14 14 15 15 15 16 16 17 17 18 19 19 20 20 21 22 22
19 18 18 17 16 16 15 14 13 12 11 11 11 10 10 10 10 11 11 11 11 11 11 11 11 11 11 12 12 12 13 13 14 15 15 16 17 17 18 18 19 19 19
16 15 14 13 13 13 12 11 10 9 9 9 9 8 8 9 8 9 9 9 9 9 9 9 9 9 9 9 9 10 11 11 12 13 14 14 15 15 15 16 16 16 16
13 12 11 11 10 9 9 8 7 7 7 7 6 7 7 7 7 7 7 7 6 7 7 7 7 8 8 8 8 8 9 10 10 11 12 12 12 13 13 13 14 14 14
11 10 8 7 7 7 5 5 4 4 5 5 5 5 4 4 5 5 4 4 4 4 5 5 5 6 6 7 7 8 9 9 9 9 9 9 10 10 11 11 12 12 12
8 6 5 4 4 2 2 2 2 3 3 4 4 3 3 3 3 2 2 2 2 2 3 3 4 4 5 6 6 6 7 6 6 6 7 8 8 9 9 10 10 10 11
6 4 3 2 1 0 1 2 3 4 4 5 5 4 4 3 3 2 2 1 1 1 1 1 1 1 2 2 2 3 3 3 3 4 5 6 6 7 8 8 9 9 9
5 4 3 2 2 2 3 4 5 6 6 6 6 5 5 5 4 4 4 3 3 3 3 3 3 3 3 3 3 3 3 3 4 4 4 5 5 6 7 7 7 8 8
Wind_Direction
260 260 260 262 264 265 265 266 267 267 267 266 264 266 268 269 267 267 268 262 259 257 257 257 258 258 257 256 256 255 255 255 255 255 255 253 249 248 249 247 247 247 249
262 261 262 263 265 267 268 268 267 267 267 264 264 265 267 268 269 269 268 262 258 256 258 256 254 255 256 256 253 254 255 256 255 254 253 252 249 249 249 248 249 248 249
264 264 265 266 268 268 268 267 266 267 266 264 265 266 267 267 267 267 266 261 258 257 256 255 255 253 253 254 252 253 253 253 252 252 251 250 248 247 248 248 248 248 250
267 268 269 269 270 270 269 267 267 267 264 263 264 265 266 267 266 266 266 261 258 257 254 253 255 253 254 254 254 255 253 251 249 248 248 248 246 247 247 247 247 248 249
270 272 273 273 274 272 270 269 268 267 264 263 262 263 266 267 265 264 263 260 258 257 254 254 255 254 255 255 255 254 254 252 250 248 249 247 245 247 246 245 247 249 251
273 275 275 276 277 274 272 270 269 268 265 262 261 261 264 265 264 263 262 262 260 258 257 257 256 255 254 252 251 252 251 250 249 248 247 245 246 247 245 245 246 249 253
278 279 280 281 280 277 273 268 268 268 266 264 264 263 263 265 265 264 263 262 261 260 257 257 256 256 254 252 249 249 247 247 246 247 247 247 247 244 245 247 247 250 254
279 280 282 283 282 279 274 270 269 268 269 268 267 266 264 266 265 265 264 262 261 260 258 258 259 258 255 251 248 247 246 244 243 243 244 245 245 244 246 249 252 254 255
280 282 283 282 282 281 278 274 272 270 270 269 268 267 267 267 266 265 264 263 262 261 260 260 259 255 251 250 248 246 246 244 245 242 241 242 243 243 245 250 254 255 257
282 283 285 283 283 283 280 276 274 272 272 269 269 267 267 267 267 267 264 263 261 261 259 256 256 253 251 249 248 248 247 246 245 245 244 245 245 247 248 249 250 253 257
285 285 285 284 283 283 282 278 274 274 275 272 268 266 266 267 268 268 266 264 261 260 259 256 253 251 251 248 245 247 250 250 250 250 250 251 251 252 251 252 254 256 258
289 288 287 286 284 282 281 279 277 277 278 276 271 266 265 266 268 268 266 262 261 259 258 256 255 253 250 250 248 246 249 251 251 252 253 253 253 254 254 256 258 261 262
291 290 288 287 286 284 283 281 279 279 279 277 274 271 269 267 267 266 264 262 259 257 256 254 254 253 251 250 250 249 251 252 254 254 255 256 257 259 259 260 262 264 265
291 290 288 288 287 286 284 283 281 279 279 277 274 273 270 269 268 266 264 261 259 257 256 255 254 254 255 255 255 254 252 254 256 257 258 261 262 264 263 263 264 266 267
292 291 289 287 287 286 285 284 283 280 280 278 275 272 269 269 268 267 265 262 261 259 257 257 257 255 255 255 257 257 258 259 260 262 262 262 264 265 266 267 269 270 272
293 295 293 289 287 285 284 284 283 282 279 277 274 271 270 268 268 267 266 264 264 260 258 258 257 254 255 258 259 260 261 262 264 266 267 268 270 271 273 274 276 277 278
293 294 294 291 287 285 285 284 284 282 279 276 273 270 269 268 267 268 265 265 265 262 260 259 258 258 259 259 260 262 263 264 265 267 269 270 272 274 277 278 280 281 282
293 293 291 289 287 287 287 286 284 280 279 276 272 269 266 264 265 265 264 264 263 262 260 260 260 259 261 261 264 265 266 268 271 272 274 275 275 278 280 280 282 284 285
296 294 291 289 289 288 286 284 282 278 276 273 271 268 264 261 261 260 261 261 259 259 256 257 259 258 260 263 267 268 269 270 273 274 276 278 280 283 284 284 285 286 286
299 296 293 291 290 289 288 283 279 276 273 270 266 260 259 257 255 256 259 260 257 253 253 255 258 259 260 263 267 269 271 272 276 278 281 283 283 285 285 285 287 288 290
303 298 295 294 290 288 284 281 276 271 269 266 258 252 251 249 249 252 254 258 255 252 251 252 257 259 260 265 268 272 275 277 280 282 284 286 287 289 290 292 292 293 293
308 301 295 292 288 286 283 277 269 265 263 257 246 244 242 242 242 243 248 249 252 253 250 250 258 263 265 268 273 275 280 283 286 287 287 290 293 295 295 295 296 297 298
312 303 296 294 293 290 281 268 260 249 237 230 221 220 223 227 226 228 232 235 242 245 248 257 266 266 270 273 280 281 286 289 294 295 295 301 304 304 303 302 304 305 304
321 314 309 305 301 284 255 238 209 186 185 186 183 184 187 188 192 199 205 222 242 245 258 271 279 279 277 279 281 288 293 294 301 309 314 315 315 314 315 317 318 317 313
340 334 335 343 358 168 153 135 140 146 139 137 136 136 139 147 155 150 142 152 214 233 224 249 306 315 308 296 291 298 308 323 332 334 334 332 332 332 333 333 331 327 325
11 20 34 65 87 104 122 127 129 127 127 131 130 127 128 129 127 122 115 111 114 110 104 88 74 68 61 65 67 61 47 31 18 8 5 2 0 358 355 353 351 350 349
Height
5841 5841 5841 5841 5841 5841 5840 5840 5839 5839 5839 5838 5838 5838 5837 5837 5837 5836 5835 5835 5834 5836 5837 5838 5840 5841 5841 5842 5843 5845 5846 5847 5848 5849 5850 5851 5853 5854 5856 5857 5859 5860 5861
5836 5836 5836 5835 5835 5835 5834 5833 5833 5832 5832 5832 5831 5831 5831 5831 5830 5829 5827 5827 5828 5829 5830 5831 5832 5833 5834 5834 5835 5837 5838 5839 5840 5842 5842 5844 5846 5847 5849 5850 5852 5854 5855
5830 5830 5830 5829 5829 5828 5827 5826 5826 5825 5825 5824 5824 5824 5824 5824 5823 5822 5821 5821 5821 5822 5823 5824 5825 5825 5826 5827 5828 5829 5830 5832 5833 5834 5835 5837 5839 5840 5842 5843 5845 5847 5848
5824 5824 5823 5822 5822 5821 5820 5819 5818 5818 5817 5817 5817 5817 5817 5817 5816 5815 5814 5814 5814 5814 5815 5816 5817 5818 5819 5820 5820 5821 5823 5824 5825 5827 5828 5830 5832 5833 5835 5836 5838 5839 5840
5818 5817 5817 5816 5815 5814 5813 5812 5811 5811 5810 5810 5810 5810 5810 5809 5809 5808 5808 5807 5808 5808 5809 5809 5810 5811 5812 5812 5813 5814 5815 5816 5818 5819 5820 5822 5824 5825 5827 5829 5830 5832 5833
5812 5811 5810 5809 5808 5806 5805 5804 5804 5803 5803 5803 5803 5803 5803 5803 5802 5802 5801 5801 5801 5802 5802 5802 5803 5804 5804 5805 5806 5807 5808 5809 5811 5812 5813 5815 5817 5819 5820 5822 5823 5824 5825
5806 5805 5804 5803 5801 5800 5798 5798 5797 5797 5797 5797 5797 5797 5797 5796 5796 5795 5795 5795 5795 5795 5795 5796 5796 5797 5797 5798 5799 5800 5801 5802 5804 5805 5807 5808 5810 5811 5813 5814 5815 5816 5817
5801 5800 5798 5796 5795 5793 5792 5792 5791 5791 5791 5790 5790 5790 5790 5790 5789 5789 5788 5788 5788 5788 5789 5789 5789 5790 5790 5791 5792 5793 5794 5796 5797 5799 5800 5801 5803 5804 5806 5807 5808 5808 5809
5795 5794 5792 5791 5789 5788 5787 5786 5785 5785 5785 5784 5784 5784 5784 5783 5783 5782 5782 5782 5782 5782 5782 5782 5783 5783 5784 5785 5786 5787 5788 5789 5791 5792 5793 5794 5795 5797 5799 5800 5801 5802 5801
5790 5788 5787 5785 5784 5782 5781 5780 5779 5779 5779 5778 5778 5777 5777 5777 5777 5776 5776 5776 5776 5776 5776 5776 5777 5778 5778 5779 5780 5781 5782 5784 5785 5785 5787 5788 5789 5790 5791 5792 5793 5793 5794
5785 5783 5781 5780 5778 5777 5775 5774 5774 5773 5773 5772 5772 5771 5771 5771 5770 5770 5770 5770 5770 5770 5771 5771 5771 5772 5773 5774 5775 5776 5777 5778 5778 5779 5780 5781 5782 5783 5784 5785 5785 5786 5786
5779 5777 5775 5774 5772 5771 5770 5769 5768 5767 5767 5766 5766 5765 5765 5765 5765 5764 5764 5764 5764 5765 5765 5765 5766 5767 5768 5768 5769 5770 5771 5772 5773 5773 5774 5775 5776 5777 5777 5778 5778 5778 5778
5773 5771 5770 5768 5766 5765 5764 5763 5762 5762 5761 5761 5760 5759 5759 5759 5759 5759 5759 5759 5759 5759 5759 5760 5761 5761 5762 5763 5764 5764 5765 5766 5767 5767 5768 5769 5769 5770 5770 5770 5771 5771 5771
5768 5765 5764 5762 5760 5759 5758 5757 5756 5756 5755 5755 5754 5754 5753 5753 5753 5753 5753 5753 5753 5754 5754 5755 5755 5756 5756 5757 5758 5759 5760 5760 5761 5762 5762 5762 5763 5763 5763 5764 5764 5763 5763
5762 5759 5757 5756 5754 5753 5752 5751 5750 5749 5749 5748 5748 5748 5748 5747 5747 5747 5747 5748 5748 5748 5749 5749 5750 5751 5751 5752 5753 5753 5754 5755 5755 5755 5756 5756 5756 5757 5757 5757 5756 5756 5755
5755 5753 5751 5749 5748 5746 5745 5744 5743 5743 5742 5742 5742 5742 5742 5742 5742 5742 5742 5742 5743 5743 5743 5744 5744 5745 5746 5746 5747 5748 5748 5749 5749 5750 5750 5750 5750 5750 5750 5750 5749 5749 5748
5749 5747 5745 5743 5741 5740 5738 5738 5737 5736 5736 5736 5736 5736 5736 5736 5736 5736 5737 5737 5737 5738 5738 5739 5739 5740 5741 5741 5742 5743 5743 5744 5744 5744 5744 5744 5744 5744 5744 5743 5743 5742 5741
5743 5740 5738 5737 5735 5734 5732 5732 5731 5730 5730 5730 5730 5730 5730 5730 5731 5731 5732 5733 5733 5733 5734 5734 5735 5736 5736 5737 5737 5738 5738 5739 5739 5739 5739 5739 5739 5738 5738 5737 5737 5735 5734
5736 5734 5732 5731 5729 5728 5727 5726 5725 5725 5725 5725 5725 5725 5725 5726 5726 5727 5728 5728 5729 5729 5730 5730 5731 5731 5732 5732 5733 5733 5734 5734 5734 5734 5734 5734 5734 5733 5732 5732 5731 5730 5728
5730 5728 5726 5725 5724 5723 5722 5721 5721 5721 5721 5721 5721 5721 5721 5722 5723 5723 5724 5725 5725 5726 5726 5727 5727 5728 5728 5728 5729 5730 5730 5730 5730 5730 5729 5729 5729 5728 5727 5727 5725 5724 5723
5725 5723 5722 5721 5720 5719 5718 5717 5717 5717 5717 5717 5717 5718 5719 5719 5720 5721 5721 5722 5722 5723 5723 5724 5724 5725 5725 5726 5726 5726 5726 5726 5726 5726 5725 5725 5724 5723 5723 5722 5721 5719 5718
5721 5719 5718 5717 5716 5715 5715 5714 5714 5714 5715 5715 5715 5716 5716 5717 5718 5718 5719 5720 5720 5720 5721 5721 5722 5722 5723 5723 5723 5724 5724 5724 5723 5723 5722 5721 5721 5720 5719 5718 5716 5715 5713
5718 5716 5715 5714 5714 5713 5713 5712 5712 5712 5713 5713 5714 5714 5715 5716 5717 5717 5718 5718 5718 5719 5719 5720 5720 5720 5720 5721 5721 5721 5721 5721 5721 5720 5719 5718 5718 5717 5716 5714 5713 5711 5710
5716 5714 5713 5713 5712 5712 5711 5711 5711 5712 5712 5713 5713 5714 5715 5716 5716 5717 5717 5718 5718 5718 5718 5718 5718 5718 5718 5719 5719 5719 5719 5719 5718 5718 5717 5716 5715 5714 5713 5711 5710 5709 5707
5715 5713 5712 5712 5712 5711 5711 5711 5711 5712 5712 5713 5714 5714 5715 5716 5717 5717 5717 5717 5718 5718 5718 5718 5718 5718 5718 5717 5717 5717 5717 5717 5717 5716 5716 5715 5714 5712 5711 5709 5708 5707 5705
5715 5713 5712 5712 5712 5711 5711 5712 5712 5713 5714 5714 5715 5715 5716 5717 5717 5717 5718 5718 5718 5718 5718 5718 5718 5718 5718 5717 5717 5717 5717 5717 5716 5716 5715 5714 5713 5711 5710 5709 5707 5706 5704